| time (UTC) | temp F | wind direction | speed MPH | gust MPH | rain 1hr in | rain 24hr in | rain mn in | humidity % | barometer mb |
| 20260902200017 | 70 | 216 | 4.0 | 5.0 | 0.00 | 0.20 | 0.20 | 56 | 1091.5 |
| 20260902195018 | 62 | 0.0 | 0.0 | 0.00 | 0.00 | 0.00 | 78 | 1020.9 | |
| 20260902194037 | 70 | 208 | 4.0 | 5.0 | 0.00 | 0.20 | 0.20 | 55 | 1090.0 |
| 20260902193017 | 69 | 204 | 4.0 | 5.0 | 0.00 | 0.20 | 0.20 | 54 | 1089.2 |
| 20260902192017 | 69 | 201 | 4.0 | 5.0 | 0.00 | 0.20 | 0.20 | 53 | 1088.4 |
| 20260902191017 | 69 | 197 | 5.0 | 5.0 | 0.00 | 0.20 | 0.20 | 53 | 1087.7 |
| 20260902190037 | 69 | 193 | 5.0 | 6.0 | 0.00 | 0.20 | 0.20 | 52 | 1086.9 |
| 20260902185037 | 68 | 189 | 5.0 | 6.0 | 0.00 | 0.20 | 0.20 | 51 | 1086.1 |
| 20260902184037 | 68 | 185 | 5.0 | 6.0 | 0.00 | 0.20 | 0.20 | 51 | 1085.3 |
| 20260902183017 | 67 | 181 | 5.0 | 6.0 | 0.00 | 0.20 | 0.20 | 50 | 1084.6 |
| 20260902182017 | 67 | 177 | 5.0 | 6.0 | 0.00 | 0.20 | 0.20 | 49 | 1083.8 |
| 20260902181017 | 66 | 173 | 5.0 | 6.0 | 0.00 | 0.20 | 0.20 | 49 | 1083.0 |
| 20260902180017 | 66 | 169 | 5.0 | 6.0 | 0.00 | 0.20 | 0.20 | 48 | 1082.2 |
| 20260902175017 | 65 | 165 | 5.0 | 7.0 | 0.00 | 0.20 | 0.20 | 48 | 1081.5 |
| 20260902174022 | 69 | 293 | 1.0 | 2.0 | 0.00 | 0.00 | 0.00 | 66 | 1019.4 |
| 20260902174017 | 65 | 161 | 6.0 | 7.0 | 0.00 | 0.20 | 0.20 | 47 | 1080.7 |
| 20260902173016 | 64 | 157 | 6.0 | 7.0 | 0.00 | 0.20 | 0.20 | 46 | 1079.9 |
| 20260902172017 | 64 | 154 | 6.0 | 7.0 | 0.00 | 0.20 | 0.20 | 46 | 1079.2 |
| 20260902171017 | 63 | 150 | 6.0 | 7.0 | 0.00 | 0.20 | 0.20 | 45 | 1078.4 |
| 20260902170017 | 62 | 146 | 6.0 | 7.0 | 0.00 | 0.20 | 0.20 | 44 | 1077.6 |
| 20260902165017 | 62 | 142 | 6.0 | 7.0 | 0.00 | 0.20 | 0.20 | 44 | 1076.9 |
| 20260902164016 | 71 | 293 | 2.0 | 5.0 | 0.00 | 0.00 | 0.00 | 62 | 1019.5 |
| 20260902163017 | 60 | 134 | 6.0 | 8.0 | 0.00 | 0.20 | 0.20 | 42 | 1075.4 |
| 20260902162017 | 59 | 131 | 6.0 | 8.0 | 0.00 | 0.20 | 0.20 | 42 | 1074.6 |
| 20260902161017 | 59 | 127 | 6.0 | 8.0 | 0.00 | 0.20 | 0.20 | 41 | 1073.9 |
| 20260902160017 | 58 | 123 | 7.0 | 8.0 | 0.00 | 0.20 | 0.20 | 41 | 1073.1 |
| 20260902155023 | 73 | 203 | 6.0 | 11.0 | 0.00 | 0.00 | 0.00 | 57 | 1019.8 |
| 20260902155017 | 57 | 119 | 7.0 | 8.0 | 0.00 | 0.20 | 0.20 | 40 | 1072.4 |
| 20260902154019 | 73 | 180 | 4.0 | 7.0 | 0.00 | 0.00 | 0.00 | 56 | 1019.7 |
| 20260902154017 | 56 | 116 | 7.0 | 8.0 | 0.00 | 0.20 | 0.20 | 39 | 1071.7 |
| 20260902153058 | 73 | 203 | 5.0 | 8.0 | 0.00 | 0.00 | 0.00 | 55 | 1019.8 |
| 20260902152037 | 55 | 108 | 7.0 | 8.0 | 0.00 | 0.20 | 0.20 | 38 | 1070.2 |
| 20260902152019 | 73 | 270 | 4.0 | 7.0 | 0.00 | 0.00 | 0.00 | 56 | 1019.8 |
| 20260902151017 | 74 | 225 | 4.0 | 9.0 | 0.00 | 0.00 | 0.00 | 57 | 1020.0 |
| 20260902150018 | 74 | 293 | 4.0 | 10.0 | 0.00 | 0.00 | 0.00 | 54 | 1020.0 |
| 20260902145018 | 75 | 270 | 4.0 | 8.0 | 0.00 | 0.00 | 0.00 | 53 | 1020.0 |
| 20260902144017 | 74 | 203 | 3.0 | 7.0 | 0.00 | 0.00 | 0.00 | 55 | 1020.0 |
| 20260902143017 | 73 | 270 | 5.0 | 10.0 | 0.00 | 0.00 | 0.00 | 56 | 1020.1 |
| 20260902142037 | 73 | 270 | 4.0 | 10.0 | 0.00 | 0.00 | 0.00 | 56 | 1020.2 |
| 20260902141017 | 48 | 84 | 8.0 | 9.0 | 0.00 | 0.20 | 0.20 | 34 | 1065.4 |
| 20260902140017 | 73 | 248 | 4.0 | 7.0 | 0.00 | 0.00 | 0.00 | 55 | 1020.2 |
| 20260902135018 | 73 | 248 | 4.0 | 8.0 | 0.00 | 0.00 | 0.00 | 54 | 1020.2 |
| 20260902134018 | 75 | 248 | 4.0 | 9.0 | 0.00 | 0.00 | 0.00 | 52 | 1020.4 |
| 20260902133017 | 45 | 71 | 8.0 | 10.0 | 0.00 | 0.20 | 0.20 | 32 | 1062.9 |
| 20260902132017 | 44 | 68 | 8.0 | 10.0 | 0.00 | 0.20 | 0.20 | 31 | 1062.2 |
| 20260902131018 | 76 | 225 | 4.0 | 9.0 | 0.00 | 0.00 | 0.00 | 52 | 1020.6 |
| 20260902130017 | 43 | 62 | 8.0 | 10.0 | 0.00 | 0.20 | 0.20 | 30 | 1061.0 |
| 20260902125038 | 73 | 180 | 4.0 | 8.0 | 0.00 | 0.00 | 0.00 | 55 | 1020.6 |
| 20260902125017 | 42 | 59 | 8.0 | 10.0 | 0.00 | 0.20 | 0.20 | 30 | 1060.5 |
| 20260902124037 | 41 | 56 | 8.0 | 10.0 | 0.00 | 0.20 | 0.20 | 29 | 1059.9 |
| 20260902124017 | 74 | 203 | 5.0 | 10.0 | 0.00 | 0.00 | 0.00 | 56 | 1020.6 |
| 20260902123017 | 40 | 53 | 9.0 | 10.0 | 0.00 | 0.20 | 0.20 | 29 | 1059.3 |
| 20260902122017 | 39 | 51 | 9.0 | 10.0 | 0.00 | 0.20 | 0.20 | 28 | 1058.8 |
| 20260902121038 | 39 | 48 | 9.0 | 10.0 | 0.00 | 0.20 | 0.20 | 28 | 1058.3 |
| 20260902121017 | 73 | 293 | 3.0 | 7.0 | 0.00 | 0.00 | 0.00 | 58 | 1020.8 |
| 20260902120037 | 75 | 203 | 6.0 | 12.0 | 0.00 | 0.00 | 0.00 | 54 | 1021.1 |
| 20260902115017 | 75 | 248 | 5.0 | 11.0 | 0.00 | 0.00 | 0.00 | 56 | 1021.3 |
| 20260902114017 | 76 | 270 | 4.0 | 10.0 | 0.00 | 0.00 | 0.00 | 54 | 1021.4 |
| 20260902113017 | 36 | 38 | 9.0 | 11.0 | 0.00 | 0.20 | 0.20 | 26 | 1056.3 |
| 20260902112017 | 72 | 225 | 6.0 | 10.0 | 0.00 | 0.00 | 0.00 | 59 | 1021.2 |
| 20260902111017 | 73 | 270 | 4.0 | 10.0 | 0.00 | 0.00 | 0.00 | 62 | 1021.4 |
| 20260902110037 | 72 | 225 | 5.0 | 10.0 | 0.00 | 0.00 | 0.00 | 61 | 1021.5 |
| 20260902110016 | 34 | 31 | 9.0 | 11.0 | 0.00 | 0.20 | 0.20 | 25 | 1054.9 |
| 20260902105017 | 34 | 29 | 9.0 | 11.0 | 0.00 | 0.20 | 0.20 | 25 | 1054.5 |
| 20260902104017 | 33 | 27 | 9.0 | 11.0 | 0.00 | 0.20 | 0.20 | 24 | 1054.0 |
| 20260902103037 | 33 | 25 | 9.0 | 11.0 | 0.00 | 0.20 | 0.20 | 24 | 1053.6 |
| 20260902102057 | 32 | 23 | 9.0 | 11.0 | 0.00 | 0.20 | 0.20 | 24 | 1053.3 |
| 20260902102022 | 73 | 180 | 4.0 | 9.0 | 0.00 | 0.00 | 0.00 | 61 | 1021.8 |
| 20260902101017 | 72 | 203 | 4.0 | 10.0 | 0.00 | 0.00 | 0.00 | 61 | 1021.7 |
| 20260902100017 | 72 | 180 | 5.0 | 8.0 | 0.00 | 0.00 | 0.00 | 62 | 1021.7 |
| 20260902095017 | 31 | 17 | 10.0 | 11.0 | 0.00 | 0.20 | 0.20 | 23 | 1052.2 |
| 20260902094017 | 31 | 16 | 10.0 | 11.0 | 0.00 | 0.20 | 0.20 | 23 | 1051.9 |
| 20260902093017 | 71 | 158 | 3.0 | 7.0 | 0.00 | 0.00 | 0.00 | 66 | 1022.0 |
| 20260902092017 | 31 | 13 | 10.0 | 12.0 | 0.00 | 0.20 | 0.20 | 22 | 1051.3 |
| 20260902091017 | 69 | 225 | 2.0 | 4.0 | 0.00 | 0.00 | 0.00 | 70 | 1022.1 |
| 20260902090017 | 67 | 158 | 1.0 | 2.0 | 0.00 | 0.00 | 0.00 | 72 | 1022.1 |
| 20260902085017 | 30 | 9 | 10.0 | 12.0 | 0.00 | 0.20 | 0.20 | 21 | 1050.5 |
| 20260902084017 | 66 | 135 | 2.0 | 6.0 | 0.00 | 0.00 | 0.00 | 73 | 1022.1 |
| 20260902083017 | 30 | 6 | 10.0 | 12.0 | 0.00 | 0.20 | 0.20 | 21 | 1050.0 |
| 20260902082017 | 30 | 5 | 10.0 | 12.0 | 0.00 | 0.20 | 0.20 | 21 | 1049.8 |
| 20260902081017 | 63 | 113 | 3.0 | 5.0 | 0.00 | 0.00 | 0.00 | 78 | 1021.9 |
| 20260902080017 | 30 | 4 | 10.0 | 12.0 | 0.00 | 0.20 | 0.20 | 21 | 1049.5 |
| 20260902075017 | 30 | 3 | 10.0 | 12.0 | 0.00 | 0.20 | 0.20 | 20 | 1049.4 |
| 20260902074017 | 30 | 2 | 10.0 | 12.0 | 0.00 | 0.20 | 0.20 | 20 | 1049.2 |
| 20260902073017 | 60 | 180 | 2.0 | 4.0 | 0.00 | 0.00 | 0.00 | 89 | 1021.7 |
| 20260902072017 | 31 | 1 | 10.0 | 12.0 | 0.00 | 0.20 | 0.20 | 20 | 1049.0 |
| 20260902071037 | 31 | 1 | 10.0 | 12.0 | 0.00 | 0.20 | 0.20 | 20 | 1048.9 |
| 20260902070036 | 57 | 203 | 1.0 | 2.0 | 0.00 | 0.00 | 0.00 | 93 | 1021.6 |
| 20260902065037 | 56 | 0.0 | 2.0 | 0.00 | 0.00 | 0.00 | 93 | 1021.6 | |
| 20260902064017 | 32 | 0 | 10.0 | 12.0 | 0.00 | 0.20 | 0.20 | 20 | 1048.8 |
| 20260902063037 | 54 | 135 | 1.0 | 2.0 | 0.00 | 0.00 | 0.00 | 94 | 1021.5 |
| 20260902062017 | 52 | 0.0 | 2.0 | 0.00 | 0.00 | 0.00 | 93 | 1021.6 | |
| 20260902061017 | 34 | 0 | 10.0 | 12.0 | 0.00 | 0.20 | 0.20 | 20 | 1048.8 |
| 20260902060017 | 34 | 0 | 10.0 | 12.0 | 0.00 | 0.20 | 0.20 | 20 | 1048.8 |
| 20260902055017 | 35 | 1 | 10.0 | 12.0 | 0.00 | 0.20 | 0.20 | 20 | 1048.9 |
| 20260902054017 | 35 | 1 | 10.0 | 12.0 | 0.00 | 0.20 | 0.20 | 20 | 1049.0 |
| 20260902053017 | 36 | 1 | 10.0 | 12.0 | 0.00 | 0.20 | 0.20 | 20 | 1049.1 |
| 20260902052017 | 36 | 2 | 10.0 | 12.0 | 0.00 | 0.20 | 0.20 | 20 | 1049.2 |
| 20260902051017 | 37 | 3 | 10.0 | 12.0 | 0.00 | 0.20 | 0.20 | 20 | 1049.3 |
| 20260902050017 | 38 | 3 | 10.0 | 12.0 | 0.00 | 0.20 | 0.20 | 21 | 1049.4 |
| 20260902045017 | 38 | 4 | 10.0 | 12.0 | 0.00 | 0.20 | 0.20 | 21 | 1049.6 |
| 20260902044017 | 39 | 5 | 10.0 | 12.0 | 0.00 | 0.20 | 0.20 | 21 | 1049.8 |
| 20260902043017 | 40 | 6 | 10.0 | 12.0 | 0.00 | 0.20 | 0.20 | 21 | 1049.9 |
| 20260902042037 | 41 | 7 | 10.0 | 12.0 | 0.00 | 0.20 | 0.20 | 21 | 1050.2 |
| 20260902041017 | 41 | 8 | 10.0 | 12.0 | 0.00 | 0.20 | 0.20 | 21 | 1050.4 |
| 20260902040017 | 42 | 9 | 10.0 | 12.0 | 0.00 | 0.20 | 0.20 | 22 | 1050.6 |
| 20260902035017 | 43 | 11 | 10.0 | 12.0 | 0.00 | 0.20 | 0.20 | 22 | 1050.9 |
| 20260902034017 | 44 | 12 | 10.0 | 12.0 | 0.00 | 0.20 | 0.20 | 22 | 1051.1 |
| 20260902033037 | 45 | 13 | 10.0 | 12.0 | 0.00 | 0.20 | 0.20 | 22 | 1051.4 |
| 20260902032017 | 45 | 15 | 10.0 | 12.0 | 0.00 | 0.20 | 0.20 | 22 | 1051.7 |
| 20260902031017 | 46 | 16 | 10.0 | 11.0 | 0.00 | 0.20 | 0.20 | 23 | 1052.0 |
| 20260902030017 | 48 | 0.0 | 0.0 | 0.00 | 0.00 | 0.00 | 92 | 1021.2 | |
| 20260902025017 | 48 | 20 | 9.0 | 11.0 | 0.00 | 0.20 | 0.20 | 23 | 1052.7 |
| 20260902024017 | 49 | 22 | 9.0 | 11.0 | 0.00 | 0.20 | 0.20 | 24 | 1053.1 |
| 20260902023037 | 50 | 24 | 9.0 | 11.0 | 0.00 | 0.20 | 0.20 | 24 | 1053.5 |
| 20260902022037 | 51 | 26 | 9.0 | 11.0 | 0.00 | 0.20 | 0.20 | 24 | 1053.9 |
| 20260902021016 | 50 | 0.0 | 1.0 | 0.00 | 0.00 | 0.00 | 92 | 1021.2 | |
| 20260902020017 | 52 | 30 | 9.0 | 11.0 | 0.00 | 0.20 | 0.20 | 25 | 1054.7 |
| 20260902015017 | 53 | 32 | 9.0 | 11.0 | 0.01 | 0.20 | 0.20 | 25 | 1055.1 |
| 20260902014040 | 50 | 0.0 | 0.0 | 0.00 | 0.00 | 0.00 | 91 | 1021.4 | |
| 20260902014037 | 54 | 34 | 9.0 | 11.0 | 0.02 | 0.20 | 0.20 | 26 | 1055.6 |
| 20260902013017 | 55 | 37 | 9.0 | 11.0 | 0.03 | 0.20 | 0.20 | 26 | 1056.0 |
| 20260902012057 | 56 | 39 | 9.0 | 11.0 | 0.04 | 0.20 | 0.20 | 27 | 1056.5 |
| 20260902011017 | 57 | 42 | 9.0 | 11.0 | 0.05 | 0.20 | 0.20 | 27 | 1057.0 |
| 20260902011015 | 50 | 0.0 | 0.0 | 0.00 | 0.00 | 0.00 | 91 | 1021.6 | |
| 20260902010017 | 57 | 44 | 9.0 | 11.0 | 0.06 | 0.20 | 0.20 | 27 | 1057.5 |
| 20260902005016 | 51 | 0.0 | 1.0 | 0.00 | 0.00 | 0.00 | 91 | 1021.8 | |
| 20260902004018 | 51 | 0.0 | 0.0 | 0.00 | 0.00 | 0.00 | 91 | 1021.7 | |
| 20260902003020 | 51 | 0.0 | 1.0 | 0.00 | 0.00 | 0.00 | 91 | 1021.5 | |
| 20260902003017 | 60 | 52 | 9.0 | 10.0 | 0.07 | 0.20 | 0.17 | 29 | 1059.1 |
| 20260902002018 | 51 | 0.0 | 0.0 | 0.00 | 0.00 | 0.00 | 91 | 1021.5 | |
| 20260902001018 | 52 | 0.0 | 0.0 | 0.00 | 0.00 | 0.00 | 90 | 1021.6 | |
| 20260902000017 | 52 | 0.0 | 0.0 | 0.00 | 0.00 | 0.00 | 90 | 1021.5 | |
| 20260901235018 | 52 | 0.0 | 0.0 | 0.00 | 0.00 | 0.00 | 90 | 1021.6 | |
| 20260901234018 | 52 | 0.0 | 0.0 | 0.00 | 0.00 | 0.00 | 90 | 1021.6 | |
| 20260901233017 | 64 | 70 | 8.0 | 10.0 | 0.06 | 0.20 | 0.10 | 32 | 1062.6 |
| 20260901232018 | 52 | 0.0 | 0.0 | 0.00 | 0.00 | 0.00 | 90 | 1021.4 | |
| 20260901231018 | 52 | 0.0 | 0.0 | 0.00 | 0.00 | 0.00 | 89 | 1021.5 | |
| 20260901230017 | 66 | 79 | 8.0 | 9.0 | 0.07 | 0.20 | 0.07 | 33 | 1064.5 |
| 20260901225037 | 66 | 83 | 8.0 | 9.0 | 0.06 | 0.20 | 0.06 | 34 | 1065.1 |
| 20260901225017 | 52 | 0.0 | 0.0 | 0.00 | 0.01 | 0.00 | 89 | 1021.6 | |
| 20260901224019 | 53 | 0.0 | 0.0 | 0.00 | 0.01 | 0.00 | 89 | 1021.5 | |
| 20260901223057 | 53 | 0.0 | 0.0 | 0.00 | 0.01 | 0.00 | 88 | 1021.4 | |
| 20260901222037 | 68 | 93 | 7.0 | 9.0 | 0.03 | 0.20 | 0.03 | 35 | 1067.1 |
| 20260901221017 | 68 | 96 | 7.0 | 9.0 | 0.02 | 0.20 | 0.02 | 36 | 1067.8 |
| 20260901220018 | 54 | 0.0 | 0.0 | 0.00 | 0.01 | 0.01 | 87 | 1021.4 | |
| 20260901215037 | 69 | 103 | 7.0 | 9.0 | 0.00 | 0.20 | 0.20 | 37 | 1069.2 |
| 20260901214037 | 69 | 107 | 7.0 | 8.0 | 0.00 | 0.20 | 0.20 | 38 | 1069.9 |
| 20260901213017 | 69 | 110 | 7.0 | 8.0 | 0.00 | 0.20 | 0.20 | 38 | 1070.6 |
| 20260901212137 | 69 | 114 | 7.0 | 8.0 | 0.00 | 0.20 | 0.20 | 39 | 1071.3 |
| 20260901211017 | 70 | 118 | 7.0 | 8.0 | 0.00 | 0.20 | 0.20 | 40 | 1072.0 |
| 20260901210057 | 70 | 121 | 7.0 | 8.0 | 0.00 | 0.20 | 0.20 | 40 | 1072.8 |
| 20260901205017 | 70 | 125 | 7.0 | 8.0 | 0.00 | 0.20 | 0.20 | 41 | 1073.5 |
| 20260901204017 | 70 | 129 | 6.0 | 8.0 | 0.00 | 0.20 | 0.20 | 41 | 1074.3 |
| 20260901203017 | 56 | 0.0 | 0.0 | 0.00 | 0.02 | 0.01 | 84 | 1021.1 | |
| 20260901202017 | 70 | 136 | 6.0 | 7.0 | 0.00 | 0.20 | 0.20 | 43 | 1075.8 |
| 20260901201017 | 70 | 140 | 6.0 | 7.0 | 0.00 | 0.20 | 0.20 | 43 | 1076.5 |